HJS-6D

导读

HJS-6D是中国于2025年4月1日发射的新型通信卫星,作为中国航天布局空间基础设施的最新成果,该卫星定点于地球同步轨道,延续了中国自主通信卫星的成熟技术路线。它可覆盖中国全境及亚太区域,配备C/Ku双频段转发器,既承担广播电视高清信号传输保障,也可满足企业专网、海洋通信等多元业务需求,将进一步强化中国卫星通信服务能力,助力数字经济与应急通信保障体系建设。

Basic Information
目录编号:
63431
目录名称:
HJS-6D
国际标识:
2025-067D
轨道中心:
EARTH
卫星名称:
HJS-6D
卫星全名:
HJS-6D
卫星状态:
在轨 (已飞行521 天)
发射日期:
2025-04-01 UTC
国别 :
中国 (CN)
星等 :
--
Orbit Information
数据来源 国际轨道数据 AOE轨道数据
星历时间 2026-09-04T13:16:46+0800
13小时前
查看轨道信息
2026-09-02T18:00:00+0800
2天前
查看轨道信息
半长轴 6886.13km 6886.172km
偏心率 0.0006879 0.0006927
轨道倾角 54.995° 54.997°
近地点辐角 148.897° 143.963°
升交点赤经 42.291° 50.175°
平近点角 211.246° 68.710°
近地点 503.256km 503.264km
远地点 512.73km 512.806km
周期 94.781分钟 94.782分钟
每日圈数 15.192874 15.192736
Detailed Information
使用方式:
暂无
2D Orbit Map
3D Orbit Map
Orbit Altitude Analysis Chart
Orbit Inclination Analysis Chart
Orbit Comprehensive Analysis Chart
View Comprehensive Chart
Conjunction Data List
Event ID Objects TCA Miss Dist (km) Collision Risk Probability Collision Risk Index (CRI) Action
CDM_260906-091906-343106-844521
HJS-6D (63431)
2026-09-06T
09:19:34+0000
2.859 km
极远距离
1.420465E-6 低风险 0.38
CDM_260905-131806-343106-672621
HJS-6D (63431)
2026-09-05T
13:18:59+0000
2.830 km
极远距离
1.155979E-6 低风险 0.36